Retour au catalogue

SL-12 DEB

LostHEO
NORAD 41643·DEBRIS·🇷🇺 Russia

Lancé Dec 25, 2008 depuis Baikonur Cosmodrome

Loading…

Prochains Passages (prochaines 24 heures)

TLE

PériméSource: Space-Track

Époque: Jan 19, 2019, 06:16 UTC

1 41643U 08067P   19019.26137591 -.00000048  00000-0  00000+0 0  9995
2 41643  63.1137  78.9591 5046501  50.8780 344.2374  4.13694446 39807

Suivez SL-12 DEB en temps réel avec AllMySat

Download on the App Store